Meteo pe oră la Aberfeldy

Astăzi, 27 Iulie, Marţi

Timp Temperatura Precipitaţii Vânt Presiune Umiditate
00:00 +14°C° 0 mm 1 m/s 729 mmHg 93%
01:00 +14°C° 0 mm 1 m/s 729 mmHg 93%
02:00 +14°C° 0 mm 1 m/s 728 mmHg 93%
03:00 +14°C° 0 mm 1 m/s 728 mmHg 93%
04:00 +13°C° 0 mm 0 m/s 728 mmHg 93%
05:00 +14°C° 0 mm 0 m/s 728 mmHg 92%
06:00 +14°C° 0 mm 0 m/s 728 mmHg 92%
07:00 +15°C° 0.2 mm 0 m/s 728 mmHg 90%
08:00 +18°C° 0.2 mm 1 m/s 728 mmHg 88%
09:00 +19°C° 0.2 mm 1 m/s 728 mmHg 86%
10:00 +19°C° 1 mm 1 m/s 728 mmHg 85%
11:00 +19°C° 1 mm 1 m/s 728 mmHg 84%
12:00 +18°C° 1 mm 2 m/s 728 mmHg 83%
13:00 +19°C° 1.1 mm 2 m/s 728 mmHg 82%
14:00 +19°C° 1.1 mm 2 m/s 728 mmHg 82%
15:00 +19°C° 1.1 mm 2 m/s 727 mmHg 81%
16:00 +18°C° 1.5 mm 2 m/s 727 mmHg 83%
17:00 +18°C° 1.5 mm 2 m/s 727 mmHg 86%
18:00 +17°C° 1.5 mm 2 m/s 727 mmHg 88%
19:00 +17°C° 1.4 mm 2 m/s 727 mmHg 91%
20:00 +16°C° 1.4 mm 1 m/s 726 mmHg 94%
21:00 +15°C° 1.4 mm 1 m/s 726 mmHg 96%
22:00 +15°C° 1.1 mm 1 m/s 726 mmHg 97%
23:00 +14°C° 1.1 mm 1 m/s 725 mmHg 97%

Mâine, 28 Iulie, Miercuri

Timp Temperatura Precipitaţii Vânt Presiune Umiditate
00:00 +14°C° 1.1 mm 1 m/s 725 mmHg 98%
01:00 +13°C° 1 mm 0 m/s 725 mmHg 97%
02:00 +13°C° 1 mm 0 m/s 724 mmHg 97%
03:00 +13°C° 1 mm 0 m/s 724 mmHg 97%
04:00 +13°C° 1.1 mm 0 m/s 723 mmHg 97%
05:00 +14°C° 1.1 mm 1 m/s 723 mmHg 97%
06:00 +14°C° 1.1 mm 1 m/s 723 mmHg 97%
07:00 +14°C° 0.6 mm 1 m/s 723 mmHg 96%
08:00 +14°C° 0.6 mm 1 m/s 722 mmHg 95%
09:00 +14°C° 0.6 mm 1 m/s 722 mmHg 94%
10:00 +14°C° 1.4 mm 2 m/s 722 mmHg 94%
11:00 +13°C° 1.4 mm 2 m/s 722 mmHg 95%
12:00 +13°C° 1.4 mm 2 m/s 722 mmHg 95%
13:00 +13°C° 1.5 mm 2 m/s 722 mmHg 92%
14:00 +14°C° 1.5 mm 2 m/s 722 mmHg 89%
15:00 +14°C° 1.5 mm 2 m/s 722 mmHg 86%
16:00 +14°C° 0.4 mm 2 m/s 721 mmHg 85%
17:00 +14°C° 0.4 mm 2 m/s 721 mmHg 85%
18:00 +14°C° 0.4 mm 1 m/s 721 mmHg 84%
19:00 +13°C° 0.4 mm 1 m/s 721 mmHg 87%
20:00 +12°C° 0.4 mm 1 m/s 721 mmHg 89%
21:00 +12°C° 0.4 mm 1 m/s 721 mmHg 92%
22:00 +12°C° 0.4 mm 1 m/s 721 mmHg 93%
23:00 +11°C° 0.4 mm 1 m/s 721 mmHg 93%

Poimâine, 29 Iulie, Joi

Timp Temperatura Precipitaţii Vânt Presiune Umiditate
00:00 +11°C° 0.4 mm 1 m/s 721 mmHg 94%
01:00 +11°C° 0.1 mm 1 m/s 721 mmHg 94%
02:00 +11°C° 0.1 mm 1 m/s 721 mmHg 94%
03:00 +11°C° 0.1 mm 1 m/s 721 mmHg 94%
04:00 +12°C° 0.1 mm 1 m/s 721 mmHg 94%
05:00 +12°C° 0.1 mm 1 m/s 721 mmHg 93%
06:00 +12°C° 0.1 mm 1 m/s 722 mmHg 93%
07:00 +12°C° 0.5 mm 1 m/s 722 mmHg 92%
08:00 +13°C° 0.5 mm 2 m/s 722 mmHg 90%
09:00 +13°C° 0.5 mm 2 m/s 723 mmHg 89%
10:00 +14°C° 0.8 mm 2 m/s 723 mmHg 90%
11:00 +14°C° 0.8 mm 2 m/s 724 mmHg 91%
12:00 +14°C° 0.8 mm 2 m/s 724 mmHg 93%
13:00 +15°C° 0.5 mm 2 m/s 724 mmHg 91%
14:00 +15°C° 0.5 mm 2 m/s 724 mmHg 90%
15:00 +16°C° 0.5 mm 2 m/s 725 mmHg 88%
16:00 +16°C° 0.6 mm 2 m/s 725 mmHg 89%
17:00 +16°C° 0.6 mm 1 m/s 725 mmHg 89%
18:00 +16°C° 0.6 mm 1 m/s 725 mmHg 90%
19:00 +15°C° 0.1 mm 1 m/s 725 mmHg 91%
20:00 +14°C° 0.1 mm 1 m/s 726 mmHg 93%
21:00 +13°C° 0.1 mm 1 m/s 726 mmHg 94%
22:00 +13°C° 0 mm 2 m/s 726 mmHg 95%
23:00 +13°C° 0 mm 2 m/s 726 mmHg 95%

30 Iulie, Vineri

Timp Temperatura Precipitaţii Vânt Presiune Umiditate
00:00 +13°C° 0 mm 2 m/s 726 mmHg 96%
01:00 +12°C° 0 mm 2 m/s 726 mmHg 96%
02:00 +12°C° 0 mm 2 m/s 726 mmHg 96%
03:00 +12°C° 0 mm 2 m/s 726 mmHg 96%
04:00 +12°C° 0 mm 2 m/s 726 mmHg 96%
05:00 +12°C° 0 mm 2 m/s 726 mmHg 96%
06:00 +12°C° 0 mm 2 m/s 726 mmHg 95%
07:00 +13°C° 0.1 mm 2 m/s 726 mmHg 95%
08:00 +13°C° 0.1 mm 2 m/s 727 mmHg 94%
09:00 +13°C° 0.1 mm 2 m/s 727 mmHg 94%
10:00 +14°C° 0 mm 2 m/s 727 mmHg 88%
11:00 +16°C° 0 mm 2 m/s 728 mmHg 82%
12:00 +17°C° 0 mm 2 m/s 728 mmHg 76%
13:00 +18°C° 0 mm 2 m/s 728 mmHg 71%
14:00 +18°C° 0 mm 2 m/s 728 mmHg 66%
15:00 +19°C° 0 mm 2 m/s 729 mmHg 62%
16:00 +19°C° 0 mm 2 m/s 729 mmHg 64%
17:00 +19°C° 0 mm 2 m/s 729 mmHg 66%
18:00 +19°C° 0 mm 2 m/s 729 mmHg 68%
19:00 +18°C° 0 mm 1 m/s 729 mmHg 75%
20:00 +15°C° 0 mm 1 m/s 729 mmHg 83%
21:00 +13°C° 0 mm 1 m/s 730 mmHg 90%
22:00 +12°C° 0 mm 1 m/s 730 mmHg 91%
23:00 +11°C° 0 mm 1 m/s 730 mmHg 93%

31 Iulie, Sâmbătă

Timp Temperatura Precipitaţii Vânt Presiune Umiditate
00:00 +11°C° 0 mm 1 m/s 730 mmHg 94%
01:00 +10°C° 0 mm 1 m/s 730 mmHg 94%
02:00 +10°C° 0 mm 1 m/s 730 mmHg 94%
03:00 +10°C° 0 mm 1 m/s 730 mmHg 94%
04:00 +10°C° 0 mm 1 m/s 730 mmHg 93%
05:00 +11°C° 0 mm 1 m/s 730 mmHg 91%
06:00 +11°C° 0 mm 1 m/s 730 mmHg 90%
07:00 +12°C° 0 mm 1 m/s 730 mmHg 83%
08:00 +14°C° 0 mm 1 m/s 730 mmHg 77%
09:00 +15°C° 0 mm 1 m/s 730 mmHg 70%
10:00 +16°C° 0 mm 1 m/s 730 mmHg 65%
11:00 +17°C° 0 mm 2 m/s 731 mmHg 59%
12:00 +18°C° 0 mm 2 m/s 731 mmHg 54%
13:00 +18°C° 0 mm 2 m/s 731 mmHg 53%
14:00 +18°C° 0 mm 3 m/s 731 mmHg 51%
15:00 +18°C° 0 mm 3 m/s 731 mmHg 50%
16:00 +18°C° 0 mm 3 m/s 731 mmHg 55%
17:00 +17°C° 0 mm 3 m/s 731 mmHg 60%
18:00 +16°C° 0 mm 3 m/s 731 mmHg 65%
19:00 +14°C° 0 mm 2 m/s 731 mmHg 73%
20:00 +12°C° 0 mm 2 m/s 732 mmHg 81%
21:00 +10°C° 0 mm 1 m/s 732 mmHg 90%
22:00 +10°C° 0 mm 1 m/s 732 mmHg 89%
23:00 +10°C° 0 mm 1 m/s 732 mmHg 88%

1 August, Duminică

Timp Temperatura Precipitaţii Vânt Presiune Umiditate
00:00 +9°C° 0 mm 1 m/s 732 mmHg 87%
01:00 +9°C° 0 mm 1 m/s 732 mmHg 88%
02:00 +8°C° 0 mm 1 m/s 732 mmHg 89%
03:00 +8°C° 0 mm 1 m/s 732 mmHg 90%
04:00 +8°C° 0 mm 1 m/s 732 mmHg 89%
05:00 +9°C° 0 mm 1 m/s 732 mmHg 87%
06:00 +9°C° 0 mm 1 m/s 732 mmHg 85%
07:00 +11°C° 0 mm 1 m/s 732 mmHg 78%
08:00 +12°C° 0 mm 1 m/s 732 mmHg 70%
09:00 +13°C° 0 mm 1 m/s 732 mmHg 63%
10:00 +15°C° 0 mm 1 m/s 732 mmHg 59%
11:00 +16°C° 0 mm 1 m/s 732 mmHg 55%
12:00 +18°C° 0 mm 1 m/s 733 mmHg 50%
13:00 +18°C° 0 mm 1 m/s 733 mmHg 50%
14:00 +19°C° 0 mm 1 m/s 733 mmHg 49%
15:00 +18°C° 0 mm 2 m/s 733 mmHg 48%
16:00 +18°C° 0 mm 2 m/s 733 mmHg 52%
17:00 +17°C° 0 mm 2 m/s 733 mmHg 55%
18:00 +17°C° 0 mm 2 m/s 733 mmHg 59%
19:00 +14°C° 0 mm 2 m/s 733 mmHg 69%
20:00 +12°C° 0 mm 1 m/s 734 mmHg 78%
21:00 +10°C° 0 mm 1 m/s 734 mmHg 88%
22:00 +9°C° 0 mm 1 m/s 734 mmHg 89%
23:00 +9°C° 0 mm 1 m/s 734 mmHg 90%
Arată mai mult

Formular de consimțământ

Meteoprog și furnizorii noștri de servicii pot stoca și accesa date personale, precum cookies, identificatori de dispozitiv sau alte tehnologii similare pe dispozitivul dumneavoastră și procesa astfel de date pentru a personaliza conținutul și reclamele, dar și pentru a oferi caracteristici de social media și pentru a analiza traficul.

  • Stocarea și/sau accesarea informațiilor pe dispozitivul dumneavoastră

    Cookies, identificatori de dispozitiv sau alte informații pot fi stocate sau accesate pe dispozitiv în scopurile indicate mai sus.

  • Reclame și conținut personalizat, evaluarea reclamelor și a conținutului, informații despre audiențe și dezvoltarea produselor

    Reclamele și conținutul pot fi personalizate pe baza unui profil. Pot fi adăugate date suplimentare pentru a personaliza mai bine reclamele și conținutul. Performanța reclamelor și conținutului poate fi măsurată. Pot fi obținute informații despre utilizatorii care au văzut reclamele și conținutul. Aceste date pot fi utilizate pentru a dezvolta sau îmbunătăți experiența utilizatorilor, sistemele și software-ul.

Dând clic pe ‘Sunt de acord’, permiteți utilizarea cookie-urilor menționate, a identificatorilor de dispozitiv, balizelor web sau altor tehnologii similare. Setările pot fi modificate din browser-ul dispozitivului dumneavoastră.

În anumite scopuri, interesele legitime pot prima asupra consimțământului. Puteți citi mai multe informații în acest sens în Politica privind Confidențialitatea Datelor și Cookie.